sat.trackr.live / text

‹ back to catalog

STARLINK-11587 [DTC]

NORAD 63310 · 2025-057D

PAYLOAD ACTIVE UNKNOWN

§ Identity

Operator
Country
US
Launch date
2025-03-18
Launch site
AFETR
Launch vehicle
Mass (kg)
RCS (m²)

Purposes: comms

External: N2YO · Heavens-Above · Gunter

§ Orbital elements

Epoch: 2026-05-24T13:02:53.658240Z

Period
91.67 min
Inclination
43.0003°
Eccentricity
0.0001201
Mean motion
15.70866244 rev/d
Perigee alt
355.6 km
Apogee alt
357.2 km
Semi-major
6,734.6 km
B*
1.3962e-3
RAAN
167.6529°
Arg perigee
248.0743°
Mean anomaly
111.9997°
Rev number
6,910

§ Raw data

STARLINK-11587 [DTC]1 63310U 25057D   26144.54367660  .00182906  00000+0  13962-2 0  99942 63310  43.0003 167.6529 0001201 248.0743 111.9997 15.70866244 69109

JSON: /api/v1/satellites/63310 · /tle

For live sub-satellite position, see the globe view (requires WebGL).

§ Visibility from observer

Set your observer location to see the next 7 days of passes ≥ 10°. The values pass through the URL so the page stays shareable.

No JS? Fill the form by hand. The geolocation button needs JavaScript.